[[{"header":{"parameterUnit":"m.s-1","parameterCategory":1,"la1":30.2992,"la2":30.254,"lo1":-89.0895,"lo2":-89.0443,"dy":0.0025,"dx":0.0025,"nx":19,"ny":19,"refTime":"2026-03-21T21:00:00:Z","depth":0,"parameterNumber":2,"parameterNumberName":"U-component_of_WINDS"},"data":[0,0,0,-0.2136,-0.2132,-0.1928,-0.1927,-0.1682,-0.168,0,0,0,0,0,0,0,0,0,0,0,-0.2208,-0.2207,-0.2137,-0.2132,-0.1928,-0.1927,-0.1682,-0.1679,0,0,0,0,0,0,0,0,0,0,0,-0.2209,-0.2208,-0.2206,-0.2131,-0.1929,-0.1927,-0.1682,-0.183,0,0,0,0,0,0,0,0,0,0,-0.2025,-0.2104,-0.2208,-0.2206,-0.213,-0.1929,-0.1927,-0.1837,-0.1821,-0.1781,0,-0.1751,0,-0.1712,-0.1664,-0.1663,0,0,0,-0.2123,-0.2117,-0.2052,-0.2206,-0.2128,-0.1929,-0.2018,-0.1828,-0.181,-0.176,-0.1747,-0.1738,-0.1708,-0.1663,-0.1662,-0.1467,-0.1466,0,0,-0.2134,-0.2177,-0.2065,-0.2041,-0.2076,-0.2024,-0.2011,-0.1817,-0.1805,-0.1746,-0.1732,-0.1704,-0.1661,-0.166,-0.1467,-0.1467,0,0,0,-0.2173,-0.2186,-0.2125,-0.2052,-0.2014,-0.2019,-0.2004,-0.1813,-0.179,-0.1729,-0.1701,-0.166,-0.1657,-0.1468,-0.1467,-0.1485,0,0,0,-0.2179,-0.2208,-0.213,-0.2155,-0.2018,-0.1912,-0.2005,-0.1804,-0.178,-0.1702,-0.166,-0.1655,-0.1468,-0.1467,-0.1486,-0.1486,0,0,0,-0.2218,-0.2212,-0.2187,-0.2158,-0.2072,-0.1914,-0.1879,-0.1798,-0.1763,-0.1663,-0.1654,-0.1468,-0.1467,-0.1486,-0.1486,-0.1445,0,0,0,-0.2271,-0.2207,-0.2188,-0.2105,-0.2074,-0.1928,-0.188,-0.1769,-0.1685,-0.1659,-0.1468,-0.1467,-0.1486,-0.1487,-0.1446,-0.1418,-0.1411,0,0,-0.2214,-0.2201,-0.2148,-0.2126,-0.1995,-0.1956,-0.1826,-0.1707,-0.1657,-0.1532,-0.1527,-0.1486,-0.1486,-0.1446,-0.1359,-0.1354,0,0,0,-0.2145,-0.2107,-0.2063,-0.1987,-0.1896,-0.1817,-0.1714,-0.167,-0.1562,-0.1603,-0.146,-0.1459,-0.1433,-0.1417,-0.1412,-0.1386,-0.1462,-0.1462,-0.1463,-0.2125,-0.2065,-0.1973,-0.1889,-0.1815,-0.171,-0.1643,-0.1565,-0.1526,-0.1493,-0.1455,-0.141,-0.1394,-0.139,-0.1363,-0.1437,-0.1437,-0.1437,-0.1437,-0.2033,-0.1969,-0.192,-0.1813,-0.1749,-0.1658,-0.1553,-0.1529,-0.1432,-0.1435,-0.1409,-0.1414,-0.1386,-0.1359,-0.1438,-0.1438,-0.1438,-0.1438,-0.1438,-0.2011,-0.197,-0.1919,-0.1801,-0.1716,-0.1632,-0.1542,-0.1488,-0.1436,-0.1411,-0.1363,-0.1362,-0.1353,-0.1392,-0.1392,-0.1392,-0.1392,-0.1392,-0.1392,-0.2008,-0.1949,-0.1881,-0.1779,-0.1722,-0.1639,-0.1532,-0.1473,-0.1394,-0.1361,-0.1361,-0.1323,-0.1396,-0.1413,-0.1389,-0.1389,-0.139,-0.139,-0.139,-0.1933,-0.1941,-0.1836,-0.1779,-0.1653,-0.1571,-0.1504,-0.1388,-0.1332,-0.1289,-0.1257,-0.1321,-0.1303,-0.1306,-0.132,-0.1272,-0.1272,-0.1272,-0.1272,-0.1913,-0.19,-0.1779,-0.169,-0.1597,-0.1525,-0.1405,-0.1321,-0.1234,-0.1195,-0.1195,-0.121,-0.1216,-0.1194,-0.12,-0.1212,-0.1138,-0.1137,-0.1137,-0.1863,-0.1838,-0.1747,-0.1664,-0.1561,-0.1474,-0.1358,-0.1256,-0.116,-0.1131,-0.1162,-0.1168,-0.1192,-0.1203,-0.1172,-0.1182,-0.1204,0,0]},{"header":{"parameterUnit":"m.s-1","parameterCategory":1,"la1":30.2992,"la2":30.254,"lo1":-89.0895,"lo2":-89.0443,"dy":0.0025,"dx":0.0025,"nx":19,"ny":19,"refTime":"2026-03-21T21:00:00:Z","depth":0,"parameterNumber":3,"parameterNumberName":"V-component_of_WINDS"},"data":[0,0,0,4.5089,4.5093,4.5286,4.5287,4.5532,4.5534,0,0,0,0,0,0,0,0,0,0,0,4.5033,4.5035,4.5088,4.5093,4.5286,4.5287,4.5531,4.5534,0,0,0,0,0,0,0,0,0,0,0,4.5033,4.5035,4.5037,4.5094,4.5286,4.5287,4.5531,4.5385,0,0,0,0,0,0,0,0,0,0,4.5197,4.5149,4.5034,4.5037,4.5095,4.5286,4.5287,4.5378,4.5394,4.5444,0,4.5493,0,4.5518,4.555,4.5551,0,0,0,4.509,4.5136,4.5187,4.5037,4.5097,4.5285,4.5198,4.5387,4.5405,4.5466,4.5496,4.5505,4.5522,4.5552,4.5553,4.5864,4.5865,0,0,4.508,4.5068,4.5174,4.5199,4.5173,4.5192,4.5204,4.5398,4.5429,4.5497,4.5511,4.5526,4.5554,4.5556,4.5863,4.5864,0,0,0,4.5051,4.5061,4.5107,4.5189,4.5224,4.5198,4.5212,4.542,4.5436,4.5514,4.5529,4.5555,4.5558,4.5861,4.5863,4.5935,0,0,0,4.5044,4.5044,4.5102,4.5097,4.5221,4.5325,4.523,4.5423,4.5445,4.5527,4.5555,4.5561,4.5859,4.5862,4.593,4.5971,0,0,0,4.502,4.5041,4.5071,4.5096,4.518,4.5323,4.535,4.5428,4.5455,4.5551,4.5561,4.5858,4.5862,4.5925,4.5963,4.6054,0,0,0,4.499,4.5127,4.5071,4.5231,4.5178,4.5366,4.5349,4.5488,4.5579,4.5556,4.5859,4.5863,4.5923,4.5958,4.6048,4.6131,4.6164,0,0,4.5157,4.5147,4.5242,4.5198,4.5394,4.5337,4.5542,4.5634,4.565,4.5791,4.5798,4.5931,4.5962,4.6053,4.6343,4.6369,0,0,0,4.5291,4.536,4.5414,4.5504,4.5579,4.5648,4.571,4.5744,4.5865,4.5721,4.5987,4.6005,4.6059,4.6099,4.6121,4.6169,4.588,4.588,4.5879,4.5514,4.5532,4.5691,4.5733,4.5818,4.5882,4.5953,4.601,4.5998,4.606,4.6104,4.6279,4.6325,4.6342,4.6391,4.6145,4.6145,4.6146,4.6146,4.5764,4.5866,4.5851,4.6001,4.6018,4.6142,4.6208,4.6196,4.6314,4.6246,4.6294,4.6223,4.637,4.6414,4.6151,4.6151,4.615,4.6149,4.6149,4.5916,4.5968,4.6009,4.6143,4.6242,4.6276,4.6391,4.64,4.6408,4.6455,4.6504,4.6503,4.6506,4.6477,4.6477,4.6478,4.6479,4.6479,4.6479,4.6058,4.6103,4.6201,4.6296,4.6355,4.6435,4.65,4.6558,4.6624,4.6621,4.6622,4.6606,4.638,4.6326,4.6489,4.6487,4.6486,4.6485,4.6485,4.6313,4.6258,4.641,4.6471,4.6583,4.6682,4.6691,4.6809,4.6857,4.6914,4.6888,4.6718,4.6707,4.669,4.6645,4.6882,4.6882,4.6882,4.6882,4.6445,4.644,4.66,4.6697,4.6791,4.6816,4.6986,4.7038,4.7082,4.7113,4.7078,4.7018,4.7,4.7,4.6976,4.6935,4.7239,4.724,4.724,4.6605,4.661,4.6756,4.6802,4.6891,4.6966,4.7127,4.7236,4.7272,4.7255,4.7138,4.7123,4.7025,4.6992,4.6976,4.6938,4.6862,0,0]}]]